#ENVIVO Turismo Nacional Series C2 y C3 y Finales C2 y C3 – Bahía Blanca – MAURICIO LAMBIRIS

PRIMERA SERIE C2
Puesto Nro Piloto Marca Vtas Tiempo Dif.
1 8 SEBASTIAN PEREZ CHEVROLET ONIX 6 7:58.486
2 22 MARCOS FERNANDEZ NISSAN MARCH 6 7:58.520 0.034
3 50 MAXIMILIANO FONTANA VW TREND 6 8:00.266 1.780
4 56 GASTON GRASSO TOYOTA ETIOS 6 8:04.877 6.391
5 127 JOSE BAILONE RENAULT CLIO 6 8:05.329 6.843
6 15 MIGUEL CIAURRO VW TREND 6 8:05.340 6.854
7 61 FACUNDO BUSTOS VW TREND 6 8:05.913 7.427
8 79 MARCO VERONESI TOYOTA ETIOS 6 8:06.256 7.770
9 12 MAXIMILIANO BESTANI FIESTA KINETIC 6 8:06.522 8.036
10 16 DIEGO LEANEZ TOYOTA ETIOS 6 8:08.359 9.873
11 21 FERNANDO GOMEZ FREDES NISSAN MARCH 6 8:08.654 10.168
12 151 DIEGO CHEVALIEY TOYOTA ETIOS 6 8:09.978 11.492
13 48 RICARDO SALE FIESTA KINETIC 6 8:15.534 17.048
14 36 SANDRO ABDALA TOYOTA ETIOS 6 8:16.186 17.700
15 37 GABRIEL SCORDIA FIAT ARGO 6 8:16.379 17.893
16 98 ALEX CONCI FIESTA KINETIC 6 8:16.707 18.221
39 LEANDRO VALLASCIANI VW TREND 1 1:28.967 5 Vueltas
Auto Nro. 28 Excluido parcialmente por no respetar régimen de parque cerrado.

Auto Nro. 15 Recargo de 3 puestos por maniobra peligrosa al Auto nro. 127

Apercibidos Autos Nro 10 por maniobra peligrosa al Auto Nro. 56 y Auto Nro. 56 por maniobra peligrosa al Auto Nro. 10.

Auto Nro. 10 excluido parcialmente por no respetar Art 9.7 del Reglamento Tecnico (tablero de instrumentos)

PRIMERA SERIE C3
Puesto Nro Piloto Marca Vtas Tiempo Dif.
1 68 JULIAN SANTERO TOYOTA COROLLA 6 7:42.536
2 118 ANTONINO GARCIA FORD FOCUS 6 7:45.767 3.231
3 33 MATIAS MENVIELLE CHEVROLET CRUZE 6 7:51.362 8.826
4 11 JERONIMO TETI CHEVROLET CRUZE 6 7:51.715 9.179
5 56 GERMAN TODINO TOYOTA COROLLA 6 7:52.300 9.764
6 1 JOSE M. URCERA HONDA CIVIC 6 7:52.370 9.834
7 9 LEANDRO CARDUCCI FORD FOCUS 6 7:55.801 13.265
8 8 ALFONSO DOMENECH TOYOTA COROLLA 6 7:56.128 13.592
9 110 FABIAN YANNANTUONI FIAT TIPO 6 7:57.335 14.799
10 44 Mariano WERNER C4 LOUNGE 6 7:57.946 15.410
11 69 MARTIN CHIALVO CHEVROLET CRUZE 6 7:58.122 15.586
12 109 LUCAS VICINO FIAT TIPO 6 7:58.613 16.077
13 40 SEBASTIAN GOMEZ CHEVROLET CRUZE 6 7:59.604 17.068
14 95 PABLO OTERO NISSAN SENTRA 6 8:07.715 25.179
15 21 FACUNDO CONTA FORD FOCUS 6 8:16.544 34.008
16 41 MAURO SCHENONE CHEVROLET CRUZE 6 8:27.971 45.435
17 57 JUAN P. PASTORI TOYOTA COROLLA 5 8:19.335 1 Vuelta
155 GASTON IANSA TOYOTA COROLLA

 

SEGUNDA SERIE C2
Puesto Nro Piloto Marca Vtas Tiempo Dif.
1 199 JUAN I. TORRES CHEVROLET CORSA 6 7:59.572
2 89 RENZO BLOTTA TOYOTA ETIOS 6 7:59.961 0.389
3 4 LUCAS TEDESCHI TOYOTA ETIOS 6 8:00.040 0.468
4 3 GERONIMO NUNEZ TOYOTA ETIOS 6 8:00.294 0.722
5 84 LUCAS YEROBI RENAULT CLIO 6 8:01.287 1.715
6 100 MAURO SALVI TOYOTA ETIOS 6 8:01.431 1.859
7 113 CHRISTIAN BODRATO MIONETT TOYOTA ETIOS 6 8:05.579 6.007
8 9 CHRISTIAN ABDALA TOYOTA ETIOS 6 8:06.663 7.091
9 7 FACUNDO LEANEZ TOYOTA ETIOS 6 8:06.800 7.228
10 19 LUCIANO GONZALEZ FIESTA KINETIC 6 8:07.354 7.782
11 23 DAMIAN KIRSTEIN PEUGEOT 208 6 8:07.952 8.380
12 2 EMANUEL ABDALA FIESTA KINETIC 6 8:10.418 10.846
13 114 PABLO ORTEGA FIAT ARGO 6 8:11.706 12.134
14 26 AGUSTIN BONOMO DS3 6 8:12.020 12.448
15 154 Facundo ROTONDO FIESTA KINETIC 6 8:12.603 13.031
16 55 MARCELO GUEVARA NISSAN MARCH 6 8:16.148 16.576
17 121 NAZARENO BEGUIRISTAIN FIAT ARGO 6 8:17.702 18.130
18 14 IGNACIO PROCACITTO VW TREND 5 6:48.128 1 Vuelta
35 SERGIO FERNANDEZ NISSAN MARCH 3 4:09.754 3 Vueltas
SEGUNDA SERIE C3
Puesto Nro Piloto Marca Vtas Tiempo Dif.
1 3 FACUNDO CHAPUR FORD FOCUS 6 7:46.749
2 4 MATIAS MUNOZ MARCHESI FORD FOCUS 6 7:48.622 1.873
3 7 LEONEL LARRAURI HONDA CIVIC 6 7:52.322 5.573
4 16 JONATAN CASTELLANO FORD FOCUS 6 7:53.054 6.305
5 13 MARIANO PERNIA VW VENTO 6 7:53.518 6.769
6 63 CARLOS JAVIER MERLO TOYOTA COROLLA 6 7:53.930 7.181
7 66 ADRIAN PERCAZ FORD FOCUS 6 7:55.723 8.974
8 82 MAURICIO LAMBIRIS VW VENTO 6 8:01.098 14.349
9 121 NICOLAS POSCO FORD FOCUS 6 8:01.957 15.208
10 14 FABRICIO PEZZINI TOYOTA COROLLA 6 8:01.958 15.209
11 50 DAMIAN MARKEL FORD FOCUS 6 8:02.004 15.255
12 38 JUAN P. ROSSOTTI VW VENTO 6 8:02.409 15.660
13 70 DANIEL STAMBUL FORD FOCUS 6 8:15.113 28.364
14 111 JOEL GASSMAN CHEVROLET CRUZE 6 8:49.335 1:02.586
137 JUAN JOSE GARRIZ C4 LOUNGE 4 5:19.333 2 Vueltas
12 LEONEL PERNIA FORD FOCUS
Auto Nro. 55 Excluido parcialmente por maniobra peligrosa al Auto Nro. 12

Auto Nro. 114 Excluido parcialmente por no respetar régimen de parque cerrado.

Auto Nro 14 Recargado con 5 seg. por falsa largada.

 

GENERAL CLASIFICACIÓN C2
Puesto Nro Piloto Marca Vtas Tiempo Dif.
1 22 MARCOS FERNANDEZ NISSAN MARCH 4 1:18.305
2 199 JUAN I. TORRES CHEVROLET CORSA 5 1:18.363 0.058
3 50 MAXIMILIANO FONTANA VW TREND 6 1:18.368 0.063
4 89 RENZO BLOTTA TOYOTA ETIOS 7 1:18.376 0.071
5 8 SEBASTIAN PEREZ CHEVROLET ONIX 7 1:18.458 0.153
6 4 LUCAS TEDESCHI TOYOTA ETIOS 7 1:18.544 0.239
7 61 FACUNDO BUSTOS VW TREND 6 1:18.576 0.271
8 84 LUCAS YEROBI FIESTA KINETIC 6 1:18.606 0.301
9 56 GASTON GRASSO TOYOTA ETIOS 7 1:18.616 0.311
10 3 GERONIMO NUNEZ TOYOTA ETIOS 6 1:18.619 0.314
11 10 ALEJO BORGIANI VW TREND 5 1:18.653 0.348
12 19 LUCIANO GONZALEZ FIESTA KINETIC 5 1:18.668 0.363
13 127 JOSE BAILONE RENAULT CLIO 4 1:18.704 0.399
14 23 DAMIAN KIRSTEIN PEUGEOT 208 5 1:18.744 0.439
15 79 MARCO VERONESI TOYOTA ETIOS 7 1:18.755 0.450
16 113 CHRISTIAN BODRATO MIONETT TOYOTA ETIOS 5 1:18.788 0.483
17 15 MIGUEL CIAURRO VW TREND 6 1:18.807 0.502
18 100 MAURO SALVI TOYOTA ETIOS 5 1:18.816 0.511
19 39 LEANDRO VALLASCIANI VW TREND 6 1:18.976 0.671
20 2 EMANUEL ABDALA FIESTA KINETIC 7 1:19.019 0.714
21 21 FERNANDO GOMEZ FREDES NISSAN MARCH 7 1:19.019 0.714
22 7 FACUNDO LEANEZ TOYOTA ETIOS 7 1:19.066 0.761
23 12 MAXIMILIANO BESTANI FIESTA KINETIC 6 1:19.117 0.812
24 14 IGNACIO PROCACITTO VW TREND 7 1:19.156 0.851
25 16 DIEGO LEANEZ TOYOTA ETIOS 7 1:19.165 0.860
26 9 CHRISTIAN ABDALA TOYOTA ETIOS 7 1:19.248 0.943
27 28 MATEO NUNEZ NISSAN MARCH 7 1:19.314 1.009
28 35 SERGIO FERNANDEZ NISSAN MARCH 4 1:19.416 1.111
29 151 DIEGO CHEVALLEY TOYOTA ETIOS 8 1:19.422 1.117
30 154 FACUNDO ROTONDO FIESTA KINETIC 6 1:19.432 1.127
31 36 SANDRO ABDALA RENAULT CLIO 6 1:19.481 1.176
32 26 AGUSTIN BONOMO DS3 7 1:19.509 1.204
33 37 GABRIEL SCORDIA FIAT ARGO 7 1:19.784 1.479
34 121 NAZARENO BEGUIRISTAIN FIAT ARGO 5 1:19.886 1.581
35 48 RICARDO SALE FIESTA KINETIC 6 1:19.974 1.669
36 55 MARCELO GUEVARA NISSAN MARCH 7 1:20.061 1.756
37 98 ALEX CONCI FIESTA KINETIC 5 1:21.149 2.844
GENERAL CLASIFICACIÓN C3
Puesto Nro Piloto Marca Vtas Tiempo Dif.
1 68 JULIAN SANTERO TOYOTA COROLLA 4 1:15.674
2 3 FACUNDO CHAPUR FORD FOCUS 6 1:16.119 0.445
3 118 ANTONINO GARCIA FORD FOCUS 6 1:16.183 0.509
4 12 LEONEL PERNIA FORD FOCUS 6 1:16.335 0.661
5 155 GASTON IANSA TOYOTA COROLLA 6 1:16.356 0.682
6 14 FABRICIO PEZZINI TOYOTA COROLLA 6 1:16.378 0.704
7 8 ALFONSO DOMENECH TOYOTA COROLLA 2 1:16.392 0.718
8 4 MATIAS MUNOZ MARCHESI FORD FOCUS 6 1:16.424 0.750
9 33 MATIAS MENVIELLE CHEVROLET CRUZE 3 1:16.450 0.776
10 55 MANUEL MALLO CHEVROLET CRUZE 6 1:16.450 0.776
11 1 JOSE M. URCERA HONDA CIVIC 5 1:16.492 0.818
12 7 LEONEL LARRAURI HONDA CIVIC 6 1:16.665 0.991
13 11 JERONIMO TETI CHEVROLET CRUZE 6 1:16.689 1.015
14 13 MARIANO PERNIA VW VENTO 6 1:16.799 1.125
15 56 GERMAN TODINO TOYOTA COROLLA 7 1:16.813 1.139
16 63 CARLOS JAVIER MERLO TOYOTA COROLLA 7 1:16.825 1.151
17 21 FACUNDO CONTA FORD FOCUS 7 1:16.933 1.259
18 16 JONATAN CASTELLANO CHEVROLET CRUZE 7 1:16.940 1.266
19 40 SEBASTIAN GOMEZ CHEVROLET CRUZE 6 1:17.007 1.333
20 114 EVER FRANETOVICH FORD FOCUS 6 1:17.014 1.340
21 9 LEANDRO CARDUCCI FORD FOCUS 7 1:17.033 1.359
22 121 NICOLAS POSCO FORD FOCUS 4 1:17.120 1.446
23 44 Mariano WERNER C4 LOUNGE 5 1:17.140 1.466
24 66 ADRIAN PERCAZ FORD FOCUS 7 1:17.254 1.580
25 69 MARTIN CHIALVO FORD FOCUS 6 1:17.255 1.581
26 137 JUAN JOSE GARRIZ C4 LOUNGE 6 1:17.260 1.586
27 110 FABIAN YANNANTUONI FIAT TIPO 8 1:17.269 1.595
28 50 DAMIAN MARKEL FORD FOCUS 7 1:17.350 1.676
29 109 LUCAS VICINO FIAT TIPO 7 1:17.370 1.696
30 38 JUAN P. ROSSOTTI VW VENTO 6 1:17.774 2.100
31 57 JUAN P. PASTORI TOYOTA COROLLA 4 1:18.290 2.616
32 82 MAURICIO LAMBIRIS VW VENTO 7 1:18.925 3.251
33 41 MAURO SCHENONE CHEVROLET CRUZE 5 1:19.355 3.681
34 70 DANIEL STAMBUL FORD FOCUS 6 1:19.985 4.311
35 95 PABLO OTERO NISSAN SENTRA 6 1:20.112 4.438
36 111 JOEL GASSMAN CHEVROLET CRUZE 2 1:32.578 16.904

Deja una respuesta

Tu dirección de correo electrónico no será publicada. Los campos obligatorios están marcados con *

  • https://one.cloudstreaming.eu:8504/stream
  • The Hit Radio